Vertical_Velocity
2 -2 -3 3 6 6 -0 -0 -4 -2 1 -2 -1 -2 0 16 -2 -6 3 0 -0 1 -8 1 -0 -0 -2 0 1 -1 1 0 -1 1 -1 -2 -0 -4 -1 -3 -4 -5 -3 -1 2 2 -8 -0 0 -2 -4 -0 -0 0
0 -5 -7 1 5 4 -1 3 -4 -1 1 19 -5 -2 -4 3 9 1 -9 -3 0 -2 -18 1 4 3 -7 -1 2 -0 3 -1 -3 -2 -0 -1 1 1 -2 -2 1 -2 -10 -8 -8 -12 -3 -1 0 1 -0 1 -0 -0
-5 6 2 -6 -5 -3 1 -1 1 -2 5 0 -2 -3 -4 -3 4 4 1 0 3 9 -13 13 -9 -1 -1 -3 14 -2 -4 4 5 3 -2 -2 -1 -3 -2 -4 1 -1 0 -1 -0 -4 -3 -2 2 0 1 1 0 0
-2 -1 3 -0 0 -3 -3 -1 1 -0 2 3 -0 -3 -8 -4 6 6 2 3 0 1 6 -7 2 -4 -1 1 -2 -5 -7 8 -2 -2 1 -1 -1 -1 -2 -4 -3 -6 -1 -2 -3 -3 -1 1 1 -0 1 1 -0 0
-2 0 3 2 5 5 3 1 -2 -2 -3 -1 5 -6 -8 6 5 1 3 -0 4 0 1 -5 -9 3 1 4 3 1 3 11 -2 -2 2 -1 -0 -2 0 -2 -0 -3 -5 -3 -6 -3 -2 -3 3 3 -1 -2 0 -0
-0 0 -0 -2 -1 10 -2 4 -2 -1 -4 11 -3 -4 6 2 4 1 -0 -2 -1 1 1 0 0 -3 1 4 5 2 8 5 -5 5 -3 -0 3 -3 -2 -1 -4 -1 -2 -1 -3 -1 -3 -2 -0 1 -3 -1 -0 -1
1 -6 2 -3 5 -4 -1 -1 -4 -1 -1 -1 -3 0 -1 0 2 -4 1 1 1 1 2 -4 -5 0 1 2 2 7 2 3 -7 -7 1 0 1 -2 -1 -1 -3 1 3 1 -1 -1 -2 0 -1 1 1 -1 -1 -0
-1 1 4 -5 -1 3 2 -1 -1 -4 3 -3 -1 -0 0 1 3 -2 3 -2 -2 0 3 1 -7 -1 -0 0 2 5 1 1 -0 -2 1 1 2 -1 -1 -2 -1 -1 0 -0 -1 -1 -1 0 -2 -2 -1 -1 -1 0
2 2 6 -2 -8 -3 -2 -1 -1 2 -3 -1 -1 2 1 2 2 0 -0 8 4 -2 1 2 1 -2 10 -0 3 11 -2 2 -4 0 -0 -1 1 -2 -5 -2 -1 -0 -0 0 1 -1 -1 -1 0 -1 -1 -1 0 1
12 1 -10 -0 -1 -6 -5 -3 -1 -0 -2 -3 -1 1 1 -1 -2 0 6 0 0 -0 2 1 1 -2 4 1 2 -0 -1 -1 1 -2 -0 -1 -2 0 0 0 1 -0 -0 -1 -2 -1 -0 -1 -2 -0 0 1 -0 0
-1 -1 -2 -5 -3 -1 -1 -2 -2 -4 -0 -3 -1 0 -0 -1 -2 1 1 1 0 1 1 -5 0 1 9 2 -1 1 -1 -0 -0 0 -2 -0 -1 1 2 -0 -1 -0 0 -2 -1 0 -0 -0 -2 -2 -1 1 -1 -0
-4 -3 -1 -3 -5 -1 -2 -1 -1 1 1 3 1 1 -2 0 1 2 -0 1 2 -1 1 2 -1 -0 -4 5 -1 -2 -1 -1 -0 -0 1 0 -1 1 1 1 1 -0 -1 1 1 1 1 2 2 1 -1 -0 1 0
1 -3 -0 1 -2 -4 -3 -2 -3 -2 -0 0 0 1 -0 -1 -1 1 -1 -3 -0 -1 -0 -3 -4 2 -3 2 -1 -1 -1 0 -0 1 -2 -2 1 2 0 1 1 -1 -1 -0 -0 -1 2 1 1 -1 1 2 -1 1
5 7 -6 -4 2 -2 -6 -3 -1 -3 -1 -0 -1 -4 -0 -1 -0 0 1 0 -1 -0 -1 1 -0 3 -1 -0 0 -1 1 -1 0 1 -4 -1 -0 -0 0 0 2 -0 -1 0 1 -2 1 -2 -1 -0 0 -2 -2 -1
-3 0 4 4 -7 -4 -2 -5 -4 -5 -1 -0 -1 -2 -0 -1 -1 -1 1 -1 -0 -1 1 -2 -1 4 -1 1 0 -0 1 -0 -1 -3 -2 -1 -1 -0 -1 1 -0 -1 1 -2 -1 -0 -1 -1 -0 -0 -0 -2 -2 -2
-3 -3 0 8 2 -3 -2 -4 -4 -3 -2 0 -0 -0 -1 1 -3 -1 -0 -1 0 0 -1 3 0 1 -1 0 1 -2 -1 -2 -5 -2 -1 -2 -1 -1 -0 0 -1 -1 -1 0 0 0 -0 -1 -1 -2 -2 -2 -2 -2
-5 -4 -4 3 2 2 4 2 -1 -2 -3 0 -2 -1 -0 0 -2 -1 1 -1 -0 0 0 1 2 -1 -0 0 -0 -1 -3 -3 -2 -2 -2 0 -2 -2 -1 -1 -1 -1 -0 0 -0 -1 -1 -1 -1 0 0 -0 -1 -0
0 -1 -4 1 -3 4 3 -2 3 -1 -2 -0 -1 1 1 1 -1 -1 -1 -1 0 1 1 1 2 1 -0 -0 -2 -2 -1 0 0 0 -0 -1 -0 0 0 -0 -1 -0 -0 -1 -0 -0 -1 -0 -1 -1 -1 -1 -1 -0
2 -1 -4 1 6 -4 1 1 -1 -0 -2 -1 -1 -1 -0 -2 -1 2 2 1 1 -0 -0 1 2 -1 -2 -2 -1 -1 -1 -1 -2 -2 -0 1 1 1 1 1 0 -0 -1 -1 -1 -2 -1 -1 -1 -1 -1 -0 0 -1
-5 -4 1 4 0 -4 -0 -1 1 2 -2 0 0 0 -1 -2 0 -1 -0 0 1 -0 2 1 -3 -4 -4 -2 0 -1 -2 0 1 -1 -1 -1 -1 0 0 -0 -0 -0 -0 -0 -0 1 2 1 -1 -1 -1 -1 -1 -0
-9 -0 4 1 -0 -2 -1 -0 -0 -1 1 1 0 -2 -1 1 0 0 -1 3 3 -1 -0 -7 -10 -8 -0 0 -0 2 1 -1 -1 3 1 -1 -1 -0 -1 -1 -1 -0 -0 -0 1 1 -1 -2 -1 -1 -0 0 -0 -1
-12 -10 7 3 -0 1 2 -0 -1 0 -0 0 -0 0 -1 -1 -1 0 1 2 -2 -8 -7 -6 -4 3 1 -1 -1 1 4 -1 0 0 -0 -0 -3 -2 -2 -1 -2 -2 -3 -3 -2 -2 -0 0 1 0 -1 -1 -0 -0
-4 -11 6 -0 2 3 -2 0 -1 0 -1 -1 0 -1 -1 -0 1 -1 -1 -1 -4 -7 2 3 3 3 2 1 1 1 2 0 -0 1 1 0 -1 -1 -0 -2 -2 -2 -2 1 -1 -1 -1 -1 -1 -1 0 -0 -0 1
-2 -5 -3 -1 2 -1 1 -0 0 -0 -0 0 0 -1 -2 -1 0 0 -1 -2 -5 1 1 2 1 -0 0 -1 -2 1 3 4 3 -0 -0 -0 -1 0 0 1 0 -0 -2 -2 -2 -1 -1 -1 -2 -2 -2 -1 -0 -0
-2 -5 2 -1 1 1 1 0 0 1 -0 -0 -0 -2 -3 1 -1 0 -2 -7 -3 -1 0 -2 -1 1 1 1 -1 1 1 0 1 -0 1 1 4 1 -1 -1 -1 0 -1 -2 -2 -1 0 -1 0 -0 -0 -0 0 -0
-0 -4 -2 -3 -0 -2 -3 -0 -0 -3 -0 0 -2 -0 1 -2 -1 -4 -4 -3 -2 -1 -0 -0 -0 -1 -2 1 -0 1 1 0 0 -2 3 -1 -1 -2 -2 -1 0 2 0 -0 -2 -1 1 -0 -1 -2 -1 1 -1 -1
0 -4 -1 4 0 -0 -0 2 2 -2 -0 -1 -1 -0 -2 -1 -3 -10 -2 -0 -2 -0 3 1 -1 -0 -2 -1 -1 -0 -0 -0 -0 1 -0 -1 -0 0 2 1 -0 2 0 -2 -1 -1 -1 1 0 -0 -1 0 1 -0
-7 2 -3 1 -0 -2 -2 0 -0 -2 -2 -0 1 -2 -2 -7 -9 -2 -1 2 1 -3 -3 2 -0 2 2 -0 -2 -2 0 1 1 0 -0 0 0 1 2 2 0 -2 -2 -1 -0 0 -0 -1 -2 -0 -0 -2 -1 3
1 0 -2 0 0 1 -3 -3 -4 -3 -2 -3 -2 -1 -6 -3 -7 -2 -1 1 -0 -0 -10 1 3 -0 -2 -2 -1 -0 1 2 0 -2 -1 -3 5 7 -0 -2 -1 0 -1 -1 1 -1 -2 -2 -1 -0 -0 -2 -1 -1
-1 -5 1 2 -0 -3 -15 -3 -6 -0 1 2 3 1 -4 -13 -8 4 -1 -0 -2 -3 2 -5 -1 -0 -0 1 -0 -0 1 0 0 1 -3 -1 -2 -1 -0 0 1 2 -0 -2 -2 0 2 1 -0 -1 -0 -1 -1 -1
-1 3 3 2 -4 -13 0 4 2 3 2 -1 1 0 -9 -7 -19 -6 -6 -1 1 1 -1 2 3 4 3 1 1 3 1 3 1 0 -1 0 0 1 1 0 0 -0 -1 -1 1 1 0 -1 -1 -2 -1 -1 1 1
4 -3 -4 -0 -4 -1 3 1 -1 -0 0 0 -5 1 -1 2 -7 -14 -13 -2 -1 -3 1 -0 0 2 3 2 1 1 0 1 -0 0 0 -1 -0 1 2 1 0 -1 -0 -1 -1 -1 -0 -2 -2 -0 -1 1 1 1
2 1 1 -1 0 0 2 -3 1 1 2 -1 -4 1 1 1 -7 -6 -7 -2 -0 -0 1 1 -0 0 -0 -1 -0 -1 0 -0 -0 -1 -0 1 1 1 -1 -1 -2 -1 -1 -1 -1 -1 -1 -1 -1 0 0 -2 -1 -0
Height
1496 1497 1499 1499 1496 1495 1494 1493 1490 1487 1485 1482 1480 1479 1477 1475 1474 1473 1472 1472 1472 1469 1463 1462 1462 1462 1462 1461 1458 1458 1457 1455 1457 1458 1457 1458 1465 1464 1465 1464 1463 1465 1471 1468 1471 1475 1473 1450 1453 1455 1452 1451 1451 1450
1493 1494 1496 1497 1495 1493 1491 1489 1488 1486 1483 1480 1479 1476 1475 1473 1472 1471 1470 1469 1469 1468 1462 1458 1454 1455 1458 1460 1462 1457 1454 1453 1449 1454 1457 1456 1457 1462 1461 1463 1461 1464 1460 1464 1464 1460 1449 1448 1448 1449 1448 1448 1448 1448
1488 1491 1492 1492 1493 1491 1488 1486 1485 1483 1480 1479 1476 1473 1472 1471 1470 1469 1466 1466 1464 1460 1453 1448 1443 1447 1447 1447 1453 1458 1453 1449 1446 1447 1447 1449 1448 1451 1456 1458 1455 1453 1452 1455 1455 1445 1446 1447 1447 1446 1444 1446 1447 1446
1487 1487 1489 1490 1488 1487 1485 1483 1482 1481 1478 1476 1473 1471 1469 1468 1467 1465 1463 1462 1462 1461 1453 1441 1440 1440 1442 1443 1444 1446 1448 1446 1445 1445 1443 1443 1445 1443 1449 1445 1448 1447 1448 1449 1449 1444 1444 1443 1444 1444 1445 1445 1445 1444
1484 1485 1484 1485 1484 1482 1482 1480 1479 1477 1476 1474 1470 1468 1466 1464 1462 1460 1459 1457 1457 1461 1452 1441 1437 1431 1431 1433 1437 1441 1442 1446 1449 1448 1438 1437 1437 1441 1444 1445 1445 1439 1440 1444 1443 1439 1441 1441 1441 1441 1440 1439 1439 1438
1480 1482 1481 1481 1480 1478 1478 1476 1476 1474 1472 1469 1467 1464 1462 1460 1456 1455 1455 1455 1454 1455 1453 1444 1433 1426 1426 1427 1429 1434 1439 1444 1447 1445 1433 1431 1429 1433 1442 1443 1431 1431 1432 1433 1435 1437 1438 1438 1438 1437 1436 1435 1434 1433
1477 1477 1477 1476 1476 1475 1474 1473 1472 1471 1469 1466 1463 1460 1457 1453 1453 1455 1455 1454 1453 1453 1452 1445 1433 1426 1424 1424 1426 1431 1437 1442 1442 1444 1434 1428 1428 1429 1434 1436 1427 1428 1430 1432 1433 1434 1434 1433 1433 1433 1432 1431 1429 1429
1474 1473 1473 1472 1473 1472 1472 1471 1470 1468 1466 1463 1458 1456 1452 1451 1452 1452 1452 1452 1451 1451 1450 1446 1436 1427 1422 1423 1424 1428 1434 1440 1434 1432 1428 1425 1427 1428 1431 1424 1426 1428 1429 1429 1430 1431 1431 1429 1428 1427 1425 1425 1425 1425
1470 1470 1470 1468 1469 1470 1470 1469 1468 1466 1463 1459 1455 1452 1451 1450 1450 1450 1450 1449 1448 1452 1448 1443 1438 1426 1419 1420 1421 1424 1429 1434 1428 1424 1419 1420 1422 1424 1421 1422 1423 1425 1426 1426 1427 1427 1426 1425 1423 1422 1421 1420 1420 1421
1466 1467 1468 1468 1467 1467 1468 1468 1466 1464 1461 1456 1453 1452 1450 1450 1449 1449 1447 1448 1447 1447 1445 1439 1431 1424 1417 1415 1417 1419 1420 1416 1416 1415 1415 1418 1419 1416 1418 1419 1422 1423 1424 1424 1423 1422 1422 1420 1419 1417 1416 1416 1416 1417
1464 1465 1466 1466 1465 1466 1466 1466 1464 1462 1460 1456 1454 1451 1450 1448 1447 1447 1446 1446 1444 1442 1438 1431 1427 1421 1412 1410 1410 1412 1412 1413 1413 1416 1416 1418 1414 1414 1416 1418 1420 1421 1421 1420 1420 1420 1419 1418 1415 1413 1412 1411 1411 1411
1462 1463 1465 1464 1465 1464 1465 1464 1463 1461 1459 1457 1455 1451 1449 1448 1447 1447 1444 1442 1440 1436 1432 1429 1425 1420 1413 1410 1409 1411 1412 1414 1413 1415 1415 1412 1412 1415 1416 1418 1418 1418 1418 1418 1418 1417 1416 1414 1412 1411 1409 1407 1407 1408
1460 1461 1462 1463 1464 1463 1464 1464 1462 1459 1456 1453 1453 1451 1451 1449 1447 1446 1443 1438 1436 1436 1434 1431 1426 1420 1415 1413 1412 1412 1411 1412 1414 1413 1411 1414 1415 1415 1416 1416 1416 1417 1417 1417 1416 1415 1414 1412 1410 1408 1407 1406 1405 1404
1459 1458 1459 1461 1462 1462 1462 1463 1461 1458 1455 1455 1454 1454 1453 1450 1447 1447 1445 1444 1441 1438 1435 1431 1425 1421 1416 1414 1413 1412 1415 1414 1414 1414 1414 1414 1414 1415 1416 1416 1416 1416 1416 1416 1415 1414 1412 1411 1409 1407 1406 1405 1404 1403
1459 1459 1459 1459 1460 1462 1461 1460 1459 1456 1456 1456 1456 1456 1453 1449 1448 1446 1444 1442 1440 1437 1434 1430 1425 1421 1417 1415 1414 1415 1415 1414 1411 1406 1414 1411 1414 1415 1416 1416 1416 1417 1417 1416 1415 1413 1412 1410 1408 1406 1405 1404 1403 1402
1457 1459 1460 1459 1459 1460 1460 1459 1457 1455 1456 1455 1454 1454 1450 1450 1445 1443 1442 1440 1438 1435 1431 1429 1424 1418 1414 1415 1413 1411 1414 1413 1410 1409 1408 1410 1412 1414 1415 1416 1416 1416 1416 1415 1414 1412 1411 1409 1407 1405 1404 1403 1403 1402
1456 1459 1460 1459 1459 1459 1458 1457 1455 1454 1454 1454 1450 1448 1449 1448 1445 1443 1441 1439 1438 1436 1432 1429 1422 1417 1418 1414 1415 1411 1410 1405 1403 1404 1407 1409 1412 1414 1415 1416 1416 1415 1415 1414 1413 1412 1410 1408 1407 1405 1404 1402 1401 1400
1454 1456 1458 1459 1459 1459 1457 1456 1453 1452 1450 1449 1449 1446 1444 1443 1441 1440 1439 1438 1438 1435 1433 1430 1430 1422 1414 1413 1409 1405 1404 1404 1404 1406 1407 1410 1412 1413 1414 1415 1415 1415 1414 1413 1412 1410 1409 1408 1406 1405 1403 1402 1400 1399
1454 1453 1457 1459 1459 1459 1457 1454 1453 1448 1445 1445 1443 1442 1441 1438 1436 1436 1435 1435 1434 1434 1433 1430 1427 1420 1413 1407 1404 1403 1403 1404 1404 1406 1408 1410 1411 1412 1413 1413 1413 1413 1412 1412 1411 1410 1408 1406 1405 1403 1402 1400 1399 1397
1452 1454 1456 1456 1457 1458 1456 1453 1451 1446 1442 1441 1439 1438 1437 1435 1433 1431 1431 1431 1432 1431 1429 1424 1413 1406 1405 1403 1403 1402 1403 1403 1403 1404 1406 1407 1409 1410 1411 1411 1412 1411 1411 1410 1409 1408 1407 1406 1404 1402 1400 1398 1397 1396
1451 1453 1454 1455 1455 1456 1454 1450 1447 1444 1441 1438 1436 1435 1433 1430 1428 1426 1426 1426 1427 1422 1413 1404 1399 1399 1401 1401 1401 1401 1400 1401 1401 1402 1402 1403 1405 1407 1408 1409 1409 1409 1409 1408 1407 1406 1404 1403 1401 1399 1398 1396 1395 1394
1447 1452 1454 1452 1453 1452 1449 1447 1446 1444 1442 1437 1436 1432 1430 1427 1425 1423 1422 1421 1413 1401 1398 1393 1392 1393 1395 1395 1397 1397 1397 1397 1398 1399 1400 1401 1402 1403 1404 1406 1407 1407 1407 1406 1405 1403 1402 1400 1398 1397 1395 1394 1392 1391
1445 1449 1452 1452 1451 1447 1444 1442 1443 1441 1440 1436 1434 1431 1427 1425 1423 1422 1418 1407 1397 1391 1390 1388 1387 1387 1388 1388 1389 1389 1391 1392 1394 1396 1397 1398 1399 1401 1401 1402 1403 1403 1403 1402 1401 1399 1398 1397 1395 1394 1392 1391 1389 1388
1443 1447 1449 1447 1443 1439 1439 1439 1438 1438 1437 1436 1435 1432 1426 1422 1422 1420 1416 1398 1389 1388 1385 1382 1381 1381 1382 1381 1381 1383 1385 1387 1390 1392 1393 1395 1396 1398 1398 1399 1399 1399 1399 1398 1397 1395 1393 1392 1391 1390 1389 1387 1386 1384
1443 1444 1444 1437 1436 1434 1435 1435 1435 1437 1437 1434 1435 1428 1423 1422 1425 1423 1412 1393 1387 1385 1382 1378 1376 1375 1376 1376 1378 1379 1380 1383 1385 1388 1390 1392 1393 1394 1394 1395 1395 1395 1394 1392 1391 1390 1389 1387 1386 1384 1383 1382 1381 1380
1436 1431 1429 1426 1425 1427 1427 1433 1431 1432 1432 1432 1428 1424 1423 1424 1428 1415 1400 1388 1386 1382 1379 1376 1373 1372 1373 1374 1375 1377 1378 1380 1383 1384 1386 1387 1389 1390 1390 1389 1389 1388 1387 1386 1385 1384 1383 1382 1380 1379 1378 1377 1375 1374
1428 1421 1418 1418 1419 1420 1423 1423 1423 1425 1429 1426 1421 1423 1425 1426 1419 1396 1386 1385 1384 1382 1379 1377 1375 1373 1373 1374 1375 1376 1378 1379 1380 1381 1382 1382 1383 1383 1383 1383 1382 1381 1380 1379 1378 1377 1375 1374 1373 1372 1370 1369 1368 1368
1412 1410 1412 1413 1415 1417 1419 1420 1420 1420 1414 1413 1415 1419 1416 1408 1396 1386 1385 1384 1383 1382 1381 1379 1377 1375 1374 1374 1374 1375 1376 1377 1377 1377 1377 1378 1377 1377 1376 1376 1375 1373 1372 1371 1369 1368 1367 1366 1364 1363 1362 1361 1360 1361
1403 1403 1407 1411 1413 1413 1410 1408 1405 1402 1402 1402 1403 1401 1394 1388 1385 1384 1383 1382 1381 1380 1380 1378 1376 1375 1374 1374 1373 1373 1373 1373 1373 1372 1372 1371 1371 1371 1369 1369 1368 1366 1365 1364 1363 1361 1359 1357 1356 1354 1353 1353 1353 1353
1397 1400 1403 1404 1405 1403 1395 1396 1393 1394 1394 1393 1390 1387 1383 1380 1380 1379 1378 1376 1374 1374 1373 1373 1372 1370 1369 1368 1368 1368 1368 1367 1367 1367 1365 1364 1363 1362 1362 1361 1360 1359 1357 1355 1354 1353 1352 1350 1349 1348 1347 1346 1346 1346
1388 1392 1394 1393 1392 1387 1387 1388 1388 1387 1387 1385 1383 1381 1376 1373 1369 1368 1367 1365 1364 1363 1361 1359 1359 1359 1359 1359 1359 1359 1360 1361 1360 1359 1358 1357 1357 1356 1355 1354 1352 1351 1349 1347 1346 1345 1344 1343 1342 1341 1340 1340 1341 1340
1380 1381 1383 1387 1382 1381 1382 1381 1380 1380 1378 1376 1374 1373 1370 1368 1361 1357 1354 1353 1352 1351 1351 1350 1349 1349 1349 1349 1350 1351 1352 1353 1353 1352 1352 1351 1350 1349 1348 1346 1345 1344 1343 1342 1341 1340 1339 1338 1338 1337 1336 1335 1335 1335
1375 1377 1377 1378 1377 1375 1374 1378 1376 1372 1369 1366 1363 1361 1360 1360 1354 1347 1342 1343 1343 1343 1343 1343 1343 1343 1343 1343 1344 1346 1347 1347 1347 1347 1346 1344 1342 1341 1339 1338 1338 1338 1337 1337 1335 1334 1333 1333 1333 1333 1332 1332 1332 1332